Location: ?????oe
(44.4874°N, 135.7046°E)
Time: 07:25:23
(UTC+00:00)

Cosmos 158 Rocket - Pass Details

Date: 13 December 2025
Orbit: 695 x 785 km, 74.0° (Epoch: 13 January)

Event Time Altitude Azimuth Distance (km) Brightness Sun altitude
Rises 20:01:51 0° 191° (S) 3,253 7.2 -24.7°
Reaches altitude 10° 20:04:15 10° 189° (S) 2,323 6.5 -24.2°
Maximum altitude 20:09:30 68° 107° (ESE) 831 4.3 -23.3°
Drops below altitude 10° 20:14:40 10° 26° (NNE) 2,294 6.6 -22.4°
Sets 20:17:02 0° 24° (NNE) 3,209 7.4 -22.0°
